Time,TemperatureF,DewpointF,PressureIn,WindDirection,WindDirectionDegrees,WindSpeedMPH,WindSpeedGustMPH,Humidity,HourlyPrecipIn,Conditions,Clouds,dailyrainin,SolarRadiationWatts/m^2,SoftwareType,DateUTC
2013-02-04 02:00:00,37.0,28.0,29.76,SW,233,3.0,-999.0,70,-99.99,,,-99.99,0.000000,,2013-02-04 08:00:00,
2013-02-04 02:52:00,37.0,28.0,29.76,SW,233,3.0,-999.0,70,-99.99,,,-99.99,0.000000,,2013-02-04 08:52:00,
2013-02-04 03:00:00,36.0,29.0,29.78,WSW,254,7.0,-999.0,73,-99.99,,,-99.99,0.000000,,2013-02-04 09:00:00,
2013-02-04 03:52:00,36.0,29.0,29.78,WSW,254,7.0,-999.0,73,-99.99,,,-99.99,0.000000,,2013-02-04 09:52:00,
2013-02-04 04:00:00,36.0,29.0,29.80,WNW,296,8.0,-999.0,74,-99.99,,,-99.99,0.000000,,2013-02-04 10:00:00,
2013-02-04 04:52:00,36.0,29.0,29.80,WNW,296,8.0,-999.0,74,-99.99,,,-99.99,0.000000,,2013-02-04 10:52:00,
2013-02-04 05:00:00,32.0,29.0,29.85,NNW,347,11.0,-999.0,87,-99.99,,,-99.99,0.000000,,2013-02-04 11:00:00,
2013-02-04 05:52:00,32.0,29.0,29.85,NNW,347,11.0,-999.0,87,-99.99,,,-99.99,0.000000,,2013-02-04 11:52:00,
2013-02-04 06:00:00,28.0,25.0,29.88,NNW,346,14.0,-999.0,88,-99.99,,,-99.99,0.000000,,2013-02-04 12:00:00,
2013-02-04 06:53:00,28.0,25.0,29.88,NNW,346,14.0,-999.0,88,-99.99,,,-99.99,0.000000,,2013-02-04 12:53:00,
2013-02-04 07:00:00,25.0,23.0,29.93,North,351,17.0,-999.0,92,-99.99,,,-99.99,0.010000,,2013-02-04 13:00:00,
2013-02-04 07:52:00,25.0,23.0,29.93,North,351,17.0,-999.0,92,-99.99,,,-99.99,0.010000,,2013-02-04 13:52:00,
2013-02-04 09:00:00,23.0,21.0,29.97,North,355,14.0,-999.0,92,-99.99,,,-99.99,20.250000,,2013-02-04 15:00:00,
2013-02-04 09:53:00,23.0,21.0,29.97,North,355,14.0,-999.0,92,-99.99,,,-99.99,20.250000,,2013-02-04 15:53:00,
2013-02-04 11:00:00,25.0,22.0,30.01,North,359,13.0,-999.0,86,-99.99,,,-99.99,104.300003,,2013-02-04 17:00:00,
2013-02-04 11:52:00,25.0,22.0,30.01,North,359,13.0,-999.0,86,-99.99,,,-99.99,104.300003,,2013-02-04 17:52:00,
2013-02-04 12:00:00,26.0,22.0,30.00,North,4,11.0,-999.0,84,-99.99,,,-99.99,149.100006,,2013-02-04 18:00:00,
2013-02-04 12:52:00,26.0,22.0,30.00,North,4,11.0,-999.0,84,-99.99,,,-99.99,149.100006,,2013-02-04 18:52:00,
2013-02-04 13:00:00,26.0,21.0,29.98,North,8,9.0,-999.0,83,-99.99,,,-99.99,153.699997,,2013-02-04 19:00:00,
2013-02-04 13:52:00,26.0,21.0,29.98,North,8,9.0,-999.0,83,-99.99,,,-99.99,153.699997,,2013-02-04 19:52:00,
2013-02-04 14:00:00,26.0,22.0,29.98,NNW,348,7.0,-999.0,84,-99.99,,,-99.99,148.100006,,2013-02-04 20:00:00,
2013-02-04 14:52:00,26.0,22.0,29.98,NNW,348,7.0,-999.0,84,-99.99,,,-99.99,148.100006,,2013-02-04 20:52:00,
2013-02-04 15:00:00,26.0,21.0,29.97,NNW,332,5.0,-999.0,82,-99.99,,,-99.99,129.300003,,2013-02-04 21:00:00,
2013-02-04 15:52:00,26.0,21.0,29.97,NNW,332,5.0,-999.0,82,-99.99,,,-99.99,129.300003,,2013-02-04 21:52:00,
2013-02-04 16:00:00,26.0,22.0,29.96,NNW,327,4.0,-999.0,84,-99.99,,,-99.99,91.000000,,2013-02-04 22:00:00,
2013-02-04 16:52:00,26.0,22.0,29.96,NNW,327,4.0,-999.0,84,-99.99,,,-99.99,91.000000,,2013-02-04 22:52:00,
2013-02-04 17:00:00,26.0,21.0,29.93,North,10,2.0,-999.0,83,-99.99,,,-99.99,57.330002,,2013-02-04 23:00:00,
2013-02-04 17:52:00,26.0,21.0,29.93,North,10,2.0,-999.0,83,-99.99,,,-99.99,57.330002,,2013-02-04 23:52:00,
2013-02-04 18:00:00,26.0,22.0,29.92,East,91,1.0,-999.0,85,-99.99,,,-99.99,11.910000,,2013-02-05 00:00:00,
2013-02-04 18:52:00,26.0,22.0,29.92,East,91,1.0,-999.0,85,-99.99,,,-99.99,11.910000,,2013-02-05 00:52:00,
2013-02-04 19:00:00,25.0,22.0,29.95,SSW,204,3.0,-999.0,87,-99.99,,,-99.99,0.010000,,2013-02-05 01:00:00,
2013-02-04 19:52:00,25.0,22.0,29.95,SSW,204,3.0,-999.0,87,-99.99,,,-99.99,0.010000,,2013-02-05 01:52:00,
2013-02-04 20:00:00,26.0,23.0,29.94,SSW,209,4.0,-999.0,88,-99.99,,,-99.99,0.000000,,2013-02-05 02:00:00,
2013-02-04 20:52:00,26.0,23.0,29.94,SSW,209,4.0,-999.0,88,-99.99,,,-99.99,0.000000,,2013-02-05 02:52:00,
2013-02-04 21:00:00,26.0,23.0,29.91,SSW,193,6.0,-999.0,89,-99.99,,,-99.99,0.000000,,2013-02-05 03:00:00,
2013-02-04 21:52:00,26.0,23.0,29.91,SSW,193,6.0,-999.0,89,-99.99,,,-99.99,0.000000,,2013-02-05 03:52:00,
2013-02-04 22:00:00,26.0,24.0,29.89,South,184,8.0,-999.0,92,-99.99,,,-99.99,0.000000,,2013-02-05 04:00:00,
2013-02-04 22:52:00,26.0,24.0,29.89,South,184,8.0,-999.0,92,-99.99,,,-99.99,0.000000,,2013-02-05 04:52:00,
2013-02-04 23:00:00,26.0,25.0,29.88,South,183,8.0,-999.0,94,-99.99,,,-99.99,0.000000,,2013-02-05 05:00:00,
2013-02-04 23:52:00,26.0,25.0,29.88,South,183,8.0,-999.0,94,-99.99,,,-99.99,0.000000,,2013-02-05 05:52:00,